Home > Weather > Male > Past weeks

Flag for Maldives Weather for the Past 2 Weeks in Male, Maldives

Now
86 °F

Passing clouds.


Feels Like: 97 °F
Forecast: 82 / 89 °F
Wind: 9 mph from Northeast

Location: Male Airport

Current Time: Feb 13, 2016 at 8:46:56 PM

Latest Report: Feb 13, 2016 at 8:00 PM


Visibility: N/A

Pressure: 29.86 "Hg

Humidity: 75%

Dew point: 77 °F

Location of MaleLocation

Historic Weather in Male — Graph

°F

Male Temperature Yesterday

Maximum temperature yesterday: 90 °F (at 2:00 PM)
Minimum temperature yesterday: 82 °F (at 1:00 AM)
Average temperature yesterday: 86 °F

High & Low Weather Summary for the Past Weeks

 TemperatureHumidityPressure
High90 °F (Jan 31, 2:00 PM)84% (Feb 1, 2:00 AM)29.98 "Hg (Feb 1, 2:00 AM)
Low81 °F (Feb 4, 3:00 AM)15% (Feb 7, 2:00 PM)29.80 "Hg (Jan 31, 3:00 PM)
Average85 °F71%29.88 "Hg
* Reported Jan 29 7:00 PM — Feb 13 7:00 PM, Male, Weather by CustomWeather, © 2016

Note: Actual official high and low records may vary slightly from our data, if they occured in-between our weather recording intervals... More about our weather records

Advertising

Male Weather History for the Previous 24 Hours

 ConditionsComfort  
Time TempWeatherWind HumidityBarometerVisibility
7:00 PM
Sat, Feb 13
86 °FPassing clouds.9 mph70%29.83 "HgN/A
6:00 PM86 °FPartly sunny.9 mph70%29.83 "HgN/A
5:00 PM88 °FScattered clouds.9 mph66%29.80 "HgN/A
4:00 PM88 °FPassing clouds.8 mph70%29.80 "HgN/A
3:00 PM88 °FPassing clouds.7 mph66%29.80 "HgN/A
2:00 PM90 °FPassing clouds.6 mph67%29.83 "HgN/A
1:00 PM88 °FPassing clouds.8 mph70%29.86 "HgN/A
12:00 PM88 °FPassing clouds.7 mph70%29.89 "HgN/A
11:00 AM88 °FPassing clouds.6 mph70%29.92 "HgN/A
10:00 AM88 °FPassing clouds.6 mph70%29.92 "HgN/A
9:00 AM86 °FScattered clouds.5 mph70%29.92 "HgN/A
8:00 AM84 °FScattered clouds.6 mph74%29.92 "HgN/A
7:00 AM82 °FScattered clouds.5 mph79%29.89 "HgN/A
6:00 AM82 °FPassing clouds.5 mph74%29.86 "HgN/A
5:00 AM82 °FPassing clouds.5 mph74%29.83 "HgN/A
4:00 AM82 °FPassing clouds.3 mph79%29.83 "HgN/A
3:00 AM82 °FPassing clouds.3 mph79%29.86 "HgN/A
2:00 AM82 °FPassing clouds.3 mph79%29.86 "HgN/A
1:00 AM82 °FPassing clouds.3 mph79%29.89 "HgN/A
12:00 AM82 °FPassing clouds.3 mph79%29.92 "HgN/A
11:00 PM
Fri, Feb 12
84 °FPassing clouds.5 mph74%29.92 "HgN/A
10:00 PM84 °FPassing clouds.6 mph74%29.92 "HgN/A
9:00 PM84 °FPassing clouds.5 mph74%29.89 "HgN/A
8:00 PM84 °FPassing clouds.5 mph74%29.86 "HgN/A
Weather by CustomWeather, © 2016

See weather overviewHow to use our weather pages